sat.trackr.live / text

‹ back to catalog

STARLINK-30324

NORAD 57640 · 2023-122J

PAYLOAD ACTIVE UNKNOWN

§ Identity

Operator
Country
US
Launch date
2023-08-17
Launch site
AFETR
Launch vehicle
Mass (kg)
RCS (m²)

Purposes: comms

External: N2YO · Heavens-Above · Gunter

§ Orbital elements

Epoch: 2026-05-25T01:23:24.567936Z

Period
94.27 min
Inclination
43.0037°
Eccentricity
0.0001174
Mean motion
15.27563335 rev/d
Perigee alt
482.3 km
Apogee alt
483.9 km
Semi-major
6,861.2 km
B*
1.9977e-4
RAAN
21.4579°
Arg perigee
256.1592°
Mean anomaly
103.9130°
Rev number
15,387

§ Raw data

STARLINK-303241 57640U 23122J   26145.05792324  .00005236  00000+0  19977-3 0  99932 57640  43.0037  21.4579 0001174 256.1592 103.9130 15.27563335153873

JSON: /api/v1/satellites/57640 · /tle

For live sub-satellite position, see the globe view (requires WebGL).

§ Visibility from observer

Set your observer location to see the next 7 days of passes ≥ 10°. The values pass through the URL so the page stays shareable.

No JS? Fill the form by hand. The geolocation button needs JavaScript.